Showing default

COSMOS 1691, 16139

Orbit data source: Space-Track

COSMOS 1691, 16139 is a payload satellite owned by GUKOS (CIS) in LEO that was launched on Wed, 09 Oct 1985 UTC via a TSIKLON-3 launch vehicle from the Plesetsk Missile And Space Complex (PKMTR). Payload-class satellites include a variety of spacecraft equipped with specific instruments for various scientific and technological missions. These include communications satellites like Starlink; space stations such as the ISS; scientific satellites like the Hubble; Earth observation satellites from companies like Planet Labs, Umbra, and HawkEye 360; GPS; miniature CubeSats for education and research; and military/defense satellites.

Loading next visibility...
Identifier
16139, 1985-094B
Orbit
LEO
Country
Flag of CISCIS
Related business
Manufacturer
NPO PM
Mission
Spacecraft
Bus & Motor
STRELA-3, Unknown motor
Mass
225 kg wet, 225 kg dry
Launch date (UTC)
1985-10-09 (41 years ago)
Launch vehicle
TSIKLON-3
Launch site
Plesetsk Missile And Space Complex (PKMTR)
Object type
Payload
Rocket body
Debris
Shape & HBR
Unknown
Radar Cross Section
Medium (>0.1 m² and <1 m²)

Expand to show TLE details & history
Last TLE update: 10 hours ago

TLE from 10 hours ago
0 COSMOS 1691
1 16139U 85094B   26127.04381288  .00000018  00000-0  41624-4 0  9998
2 16139  82.6101 316.0650 0000603  92.0527  25.3379 12.62474976870041
Epoch: 2026-05-07T01:03Z
TLE epoch observation values (Epoch: 2026-05-07T01:03:05.432Z)
Latitude
61.78781°
Longitude
-118.52339°
Altitude
1,422.861 km
Speed
7.155 km/s
True Right ascension
08h 08m 34s
True Declination
61° 39' 24"
Sunlit
Object was in daylight at epoch
Visualization orbit readout
Latitude
Unknown
Longitude
Unknown
Altitude
Unknown
Speed
Unknown
Apparent Right ascension
Unknown
Apparent Declination
Unknown
Sunlit
N/A
Visualization observer readout
Local Sidereal Time
18:44:00
Azimuth
Unknown
Elevation
Unknown
Doppler factor
Unknown
Orbital elements
Apogee altitude
1,410.534 km
Perigee altitude
1,409.595 km
Semi-major axis
7,788.202 km
Eccentricity
0.00006
Inclination
82.6101°
RAAN
316.065°
Arg. of periapsis
92.0527°
True anomaly
25.34086°
Mean anomaly
25.3379°
Eccentric anomaly
25.33938°
Mean motion
3.15782 °/min
Orbital period
114 mins
BSTAR
0.000041624
Loading maneuver chart data...
Computing Atmospheric mass density...
Loading historical data...
Loading historical data...
Loading historical data...
Loading historical data...
Loading historical data...
Loading historical data...
Loading historical data...

Documentation

Showing up to 5 results
|